Starlink 2426

operational
NORAD ID: 47836 Int'l Des: 2021-018 Owner: SPXS Country: US Constellation: starlink
LEOCIRCULARSTARLINK_TYPE

关于 Starlink 2426

正在加载描述...

实时位置

正在加载3D地球...

即将过境

高度历史

Altitude vs Time

uPlot chart will show altitude changes over time

两行轨道根数

1 47836U 21018BB 25259.45539211 .00001998 00000-0 15298-3 0 9998
2 47836 53.0533 313.8772 0001141 96.0954 264.0165 15.06407267250335
Epoch: Sep 16, 2025 • Age: 15 hours

当前状态

高度 548.1 km
速度 7.59 km/s
星下点 -0.79°S, 104.48°E
发射日期 Mar 11, 2021
运行时间 4.5 years
类型 internet

技术详情

分类 Payload
质量 260.00 kg
干质量 248.00 kg
总质量 260.00 kg
长度 0.20 m
直径 2.80 m
跨度 9.00 m
形状 Box + pan
制造商 SPXS
平台类型 Starlink
阶段状态 In Orbit
所有者/国家 SPXS/US

大型星座

Loading constellations...